STARLINK-5698, 55623

Orbit data source: Space-Track

STARLINK-5698, 55623 is a payload satellite owned by SpaceX/Seattle (US) in LEO that was launched on Sun, 12 Feb 2023 UTC via an FALCON 9 launch vehicle from the Air Force Eastern Test Range (AFETR). Payload-class satellites include a variety of spacecraft equipped with specific instruments for various scientific and technological missions. These include communications satellites like Starlink; space stations such as the ISS; scientific satellites like the Hubble; Earth observation satellites from companies like Planet Labs, Umbra, and HawkEye 360; GPS; miniature CubeSats for education and research; and military/defense satellites.

Loading next visibility...
Identifier
55623, 2023-020BG
Orbit
LEO
Country
Flag of USUS
Related business
Manufacturer
SpaceX/Seattle
Mission
Operational Commercial Communications
Bus & Motor
STARLINK, Unknown motor
Mass
305 kg wet, ~290 kg dry
Launch date (UTC)
2023-02-12 (3 years ago)
Launch vehicle
FALCON 9
Launch site
Air Force Eastern Test Range (AFETR)
Object type
Payload
Rocket body
Debris
Shape & HBR
Box + 1 Pan, 10.1 m
Radar Cross Section
13.562 m², Large (>1 m²)

Expand to show TLE details & history
Last TLE update: 10 hours ago

TLE from 10 hours ago
0 STARLINK-5698
1 55623U 23020BG  26061.91184346  .00000378  00000-0  43027-4 0  9997
2 55623  43.0052  28.1577 0001443 270.2209  89.8468 15.02534464168058
Epoch: 2026-03-02T21:53Z
TLE epoch observation values (Epoch: 2026-03-02T21:53:03.274Z)
Latitude
-0.00004°
Longitude
-100.80444°
Altitude
558.86 km
Speed
7.584 km/s
True Right ascension
01h 52m 37s
True Declination
0° 00' 00"
Sunlit
Object was in daylight at epoch
Visualization orbit readout
Latitude
Unknown
Longitude
Unknown
Altitude
Unknown
Speed
Unknown
Apparent Right ascension
Unknown
Apparent Declination
Unknown
Sunlit
N/A
Visualization observer readout
Local Sidereal Time
11:24:12
Azimuth
Unknown
Elevation
Unknown
Doppler factor
Unknown
Orbital elements
Apogee altitude
562.009 km
Perigee altitude
560.006 km
Semi-major axis
6,939.144 km
Eccentricity
0.00014
Inclination
43.0052°
RAAN
28.1577°
Arg. of periapsis
270.2209°
True anomaly
89.86334°
Mean anomaly
89.8468°
Eccentric anomaly
89.85507°
Mean motion
3.75478 °/min
Orbital period
95.88 mins
BSTAR
0.000043027
Loading maneuver chart data...
Computing Atmospheric mass density...
Loading historical data...
Loading historical data...
Loading historical data...
Loading historical data...
Loading historical data...
Loading historical data...
Loading historical data...

Documentation

Showing up to 5 results
|